Total_Precipitation_Accumulation
0.97 0.88 0.88 1.02 0.97 0.97 1.06 1.13 0.99 0.90 0.88 0.83 0.77 0.70 0.64 0.59 0.57 0.43 0.45 0.49 0.54 0.66 0.82 0.82 0.66 0.43 0.33 0.37 0.48 0.59 0.65 0.73 0.85 0.83 0.69 0.59 0.55 0.47 0.35 0.25 0.23 0.17 0.13
1.02 1.03 0.92 1.00 1.13 1.14 1.10 1.08 1.04 0.92 0.87 0.88 0.83 0.80 0.74 0.59 0.57 0.51 0.47 0.47 0.43 0.45 0.65 0.85 0.79 0.60 0.47 0.44 0.49 0.54 0.57 0.61 0.73 0.75 0.65 0.57 0.60 0.52 0.39 0.28 0.28 0.21 0.16
1.03 1.04 0.92 0.95 1.08 1.25 1.20 1.11 1.03 0.98 0.81 0.74 0.79 0.81 0.81 0.68 0.59 0.59 0.52 0.48 0.41 0.40 0.54 0.83 0.93 0.77 0.64 0.59 0.53 0.50 0.51 0.55 0.61 0.67 0.64 0.57 0.54 0.50 0.41 0.31 0.31 0.28 0.25
1.04 1.12 1.03 0.97 1.12 1.29 1.43 1.44 1.24 1.12 0.95 0.83 0.83 0.82 0.77 0.75 0.67 0.59 0.56 0.56 0.51 0.42 0.47 0.63 0.85 1.01 0.87 0.68 0.58 0.53 0.48 0.45 0.47 0.53 0.54 0.47 0.39 0.37 0.35 0.35 0.36 0.38 0.36
0.96 1.17 1.24 1.18 1.21 1.35 1.39 1.41 1.37 1.17 1.07 0.99 0.86 0.80 0.72 0.69 0.69 0.56 0.57 0.60 0.64 0.50 0.48 0.44 0.49 0.60 0.68 0.76 0.73 0.59 0.53 0.45 0.41 0.42 0.42 0.34 0.27 0.27 0.30 0.32 0.35 0.36 0.38
1.18 1.33 1.41 1.39 1.39 1.44 1.39 1.48 1.62 1.37 1.14 1.13 1.05 0.88 0.75 0.66 0.66 0.60 0.61 0.58 0.63 0.60 0.53 0.44 0.37 0.23 0.32 0.55 0.65 0.61 0.59 0.54 0.42 0.39 0.38 0.30 0.23 0.22 0.25 0.26 0.28 0.29 0.32
1.40 1.54 1.63 1.65 1.57 1.46 1.47 1.62 1.94 1.80 1.42 1.25 1.25 1.09 0.85 0.68 0.69 0.61 0.58 0.62 0.60 0.62 0.63 0.58 0.44 0.36 0.25 0.25 0.31 0.48 0.57 0.63 0.56 0.48 0.42 0.35 0.25 0.19 0.18 0.20 0.22 0.24 0.26
1.49 1.57 1.78 1.88 1.80 1.75 1.81 1.80 1.97 2.08 1.82 1.58 1.48 1.59 1.32 1.03 0.69 0.53 0.53 0.55 0.60 0.66 0.63 0.68 0.60 0.47 0.39 0.33 0.18 0.24 0.36 0.54 0.63 0.56 0.49 0.43 0.33 0.22 0.17 0.17 0.19 0.22 0.23
1.70 1.66 1.77 1.97 1.93 1.86 1.85 2.00 2.21 2.40 2.31 2.09 1.86 1.87 1.53 1.29 1.16 0.69 0.49 0.51 0.57 0.63 0.66 0.73 0.74 0.63 0.57 0.54 0.38 0.22 0.18 0.27 0.51 0.61 0.57 0.48 0.42 0.32 0.25 0.19 0.19 0.22 0.22
1.62 1.61 1.72 1.93 2.06 2.13 2.14 2.20 2.18 2.40 2.53 2.34 2.28 1.99 1.64 1.45 1.47 1.24 0.79 0.56 0.59 0.60 0.62 0.64 0.66 0.72 0.72 0.68 0.59 0.36 0.22 0.17 0.38 0.64 0.71 0.62 0.49 0.39 0.32 0.25 0.21 0.22 0.25
1.70 1.61 1.66 1.73 1.78 1.85 1.95 2.08 2.14 2.30 2.38 2.46 2.44 2.27 2.02 1.77 1.35 1.30 1.29 1.00 0.77 0.57 0.57 0.64 0.70 0.72 0.75 0.74 0.78 0.55 0.38 0.22 0.26 0.51 0.75 0.81 0.66 0.51 0.40 0.31 0.25 0.22 0.20
1.67 1.58 1.53 1.64 1.66 1.66 1.77 1.88 1.96 2.16 2.29 2.38 2.43 2.28 2.09 1.94 1.69 1.45 1.30 1.23 1.12 0.81 0.64 0.64 0.67 0.72 0.79 0.79 0.78 0.77 0.56 0.34 0.26 0.35 0.52 0.75 0.77 0.64 0.51 0.41 0.34 0.31 0.27
1.31 1.30 1.24 1.30 1.43 1.48 1.65 1.71 1.64 1.69 1.84 2.00 2.15 2.16 2.10 1.96 1.91 1.81 1.64 1.47 1.27 0.95 0.78 0.66 0.59 0.70 0.79 0.88 0.93 0.99 0.66 0.48 0.35 0.33 0.35 0.43 0.56 0.64 0.62 0.56 0.53 0.52 0.47
1.00 0.97 0.97 0.98 1.04 1.12 1.33 1.53 1.51 1.52 1.58 1.65 1.73 1.95 2.02 1.95 1.94 1.76 1.61 1.59 1.39 1.15 0.92 0.72 0.58 0.58 0.66 0.79 1.10 1.20 0.74 0.59 0.47 0.41 0.39 0.36 0.35 0.42 0.55 0.65 0.66 0.67 0.66
0.78 0.75 0.78 0.86 0.91 0.91 1.00 1.12 1.31 1.39 1.43 1.50 1.53 1.66 1.72 1.75 1.74 1.63 1.61 1.52 1.39 1.18 1.03 0.88 0.77 0.67 0.67 0.73 1.01 0.98 0.80 0.73 0.62 0.54 0.47 0.40 0.36 0.33 0.38 0.46 0.53 0.57 0.58
0.70 0.70 0.67 0.68 0.74 0.76 0.85 0.95 1.01 1.12 1.18 1.32 1.49 1.60 1.61 1.63 1.65 1.58 1.54 1.54 1.44 1.20 1.04 0.93 0.82 0.76 0.85 0.83 0.98 0.87 0.91 1.01 0.75 0.60 0.52 0.48 0.41 0.34 0.28 0.26 0.27 0.30 0.33
0.55 0.56 0.58 0.64 0.65 0.66 0.68 0.69 0.73 0.78 0.85 0.95 1.01 1.12 1.32 1.52 1.56 1.55 1.56 1.57 1.52 1.36 1.12 1.04 0.88 0.86 0.97 0.98 0.97 0.90 0.95 1.02 0.84 0.70 0.55 0.49 0.44 0.37 0.33 0.30 0.26 0.24 0.23
0.47 0.48 0.54 0.58 0.57 0.62 0.65 0.65 0.64 0.65 0.74 0.82 0.83 0.84 0.94 1.16 1.29 1.39 1.45 1.47 1.50 1.48 1.30 1.24 1.16 0.95 0.92 0.97 1.06 1.11 1.05 1.03 1.00 0.99 0.85 0.64 0.54 0.46 0.38 0.33 0.30 0.25 0.22
0.58 0.61 0.61 0.64 0.61 0.63 0.62 0.63 0.66 0.66 0.69 0.74 0.78 0.80 0.85 0.94 1.08 1.16 1.26 1.35 1.42 1.53 1.48 1.26 1.30 1.25 1.05 1.02 1.04 1.10 1.13 1.20 1.13 1.10 1.14 0.99 0.78 0.66 0.56 0.47 0.39 0.33 0.28
0.51 0.54 0.62 0.70 0.78 0.83 0.81 0.76 0.74 0.72 0.68 0.70 0.76 0.83 0.84 0.85 0.94 1.15 1.29 1.35 1.38 1.46 1.54 1.45 1.38 1.38 1.23 1.12 1.09 1.10 1.23 1.32 1.30 1.14 1.07 1.05 0.99 0.86 0.72 0.61 0.51 0.43 0.39
0.44 0.45 0.52 0.61 0.71 0.80 0.85 0.83 0.69 0.59 0.61 0.66 0.66 0.67 0.75 0.83 0.84 0.97 1.13 1.36 1.36 1.44 1.49 1.52 1.44 1.32 1.21 1.11 1.04 1.03 1.10 1.31 1.36 1.33 1.27 1.11 0.99 0.85 0.74 0.68 0.63 0.56 0.50
0.38 0.39 0.43 0.42 0.44 0.49 0.64 0.63 0.51 0.43 0.49 0.59 0.66 0.68 0.69 0.70 0.72 0.75 0.78 1.02 1.19 1.29 1.36 1.35 1.38 1.28 1.17 1.09 1.13 1.11 1.05 1.12 1.25 1.27 1.15 1.22 1.17 1.00 0.87 0.76 0.79 0.80 0.72
0.34 0.36 0.31 0.27 0.29 0.32 0.37 0.35 0.40 0.43 0.47 0.52 0.60 0.69 0.74 0.71 0.77 0.85 0.80 0.83 0.92 0.99 1.07 1.16 1.18 1.14 1.12 1.07 1.12 1.13 1.09 1.02 0.95 1.04 1.05 1.12 1.17 1.06 0.95 0.84 0.82 0.76 0.73
0.28 0.36 0.31 0.29 0.32 0.28 0.30 0.34 0.37 0.41 0.55 0.61 0.60 0.61 0.72 0.78 0.83 0.98 0.96 1.03 0.95 0.85 0.83 0.86 0.97 1.00 0.97 1.07 1.14 1.27 1.28 1.14 1.04 1.06 1.04 1.01 0.99 0.92 0.86 0.84 0.84 0.70 0.63
0.19 0.18 0.22 0.37 0.37 0.33 0.40 0.38 0.32 0.40 0.54 0.61 0.57 0.60 0.72 0.82 0.94 1.04 1.09 1.11 1.01 0.91 0.93 0.99 1.04 1.07 1.06 1.12 1.19 1.24 1.26 1.22 1.14 1.12 1.02 0.89 0.83 0.83 0.83 0.79 0.75 0.75 0.68
0.09 0.10 0.14 0.27 0.33 0.34 0.34 0.24 0.25 0.38 0.51 0.59 0.61 0.62 0.83 0.84 0.91 0.95 1.01 1.11 1.12 0.98 0.91 0.91 0.95 0.98 0.97 1.04 1.18 1.20 1.28 1.30 1.17 1.11 1.01 0.87 0.81 0.91 0.96 0.84 0.71 0.65 0.64